Weather History for KIBM - March, 2014

Change the Weather History Date:

Friday, March 28, 2014

  Actual Average (KSNY) Record (KSNY)
Temperature  
Mean Temperature 39 °F 42 °F  
Max Temperature 48 °F 56 °F 83 °F (1963)
Min Temperature 30 °F 28 °F 1 °F (1975)
Degree Days  
Heating Degree Days 26 23  
Month to date heating degree days 736  
Since 1 July heating degree days 5318  
Cooling Degree Days 0 0  
Month to date cooling degree days 0  
Year to date cooling degree days 0  
Moisture  
Dew Point 25 °F    
Average Humidity 62    
Maximum Humidity 96    
Minimum Humidity 30    
Precipitation  
Precipitation 0.01 in 0.05 in 0.59 in (1980)
Month to date precipitation 0.95  
Year to date precipitation 1.47  
Sea Level Pressure  
Sea Level Pressure 29.95 in    
Wind  
Wind Speed 13 mph (West)    
Max Wind Speed 28 mph    
Max Gust Speed 36 mph    
Visibility 10 miles    
Events      
T = Trace of Precipitation, MM = Missing Value Source: NWS Daily Summary

Daily Weather History Graph

Daily Weather History Graph

Search for Another Location

Airport or City:

Trip Planner

Search our weather history database for the weather conditions in past years. The results will help you decide how hot, cold, wet, or windy it might be!

Date:

Astronomy

Mar. 28, 2014 Rise Set
Actual Time 7:44 AM CDT 8:15 PM CDT
Civil Twilight 7:16 AM CDT 8:43 PM CDT
Nautical Twilight 6:44 AM CDT 9:15 PM CDT
Astronomical Twilight 6:10 AM CDT 9:49 PM CDT
Moon 6:18 AM CDT (3/28) 6:13 PM CDT (3/28)
Length of Visible Light 13h 26m
Length of Day
12h 31m
Waning Crescent, 6% of the Moon is Illuminated
Mar 28
Waning Crescent
Mar 30
New
Apr 7
First Quarter
Apr 15
Full
Apr 22
Last Quarter

Hourly Weather History & Observations

Time (CDT) Temp. Windchill Dew Point Humidity Pressure Visibility Wind Dir Wind Speed Gust Speed Precip Events Conditions
12:15 AM 33.1 °F 25.5 °F 32.0 °F 96% 29.81 in 4.0 mi South 9.2 mph - N/A   Overcast
12:35 AM 32.9 °F 24.7 °F 32.0 °F 96% 29.81 in 0.8 mi South 10.4 mph - N/A   Overcast
12:55 AM 33.1 °F 24.9 °F 32.0 °F 96% 29.80 in 1.0 mi South 10.4 mph - N/A   Overcast
1:15 AM 33.3 °F 27.1 °F 32.0 °F 95% 29.81 in 2.0 mi South 6.9 mph - 0.01 in   Overcast
1:35 AM 33.8 °F 25.3 °F 32.2 °F 94% 29.80 in 10.0 mi SSW 11.5 mph - 0.01 in   Mostly Cloudy
1:55 AM 33.6 °F 24.6 °F 32.0 °F 94% 29.80 in 10.0 mi South 12.7 mph - 0.01 in   Mostly Cloudy
2:15 AM 33.8 °F 24.8 °F 32.0 °F 93% 29.81 in 10.0 mi South 12.7 mph - N/A   Scattered Clouds
2:35 AM 33.8 °F 25.3 °F 32.2 °F 94% 29.81 in 10.0 mi South 11.5 mph - N/A   Scattered Clouds
2:55 AM 34.0 °F 26.0 °F 32.0 °F 92% 29.81 in 10.0 mi South 10.4 mph - N/A   Clear
3:15 AM 34.0 °F 27.2 °F 32.0 °F 92% 29.81 in 10.0 mi SSW 8.1 mph - N/A   Mostly Cloudy
3:35 AM 35.6 °F 27.5 °F 29.7 °F 79% 29.80 in 10.0 mi SSW 11.5 mph - N/A   Scattered Clouds
3:55 AM 35.1 °F 27.9 °F 28.9 °F 78% 29.79 in 10.0 mi SW 9.2 mph - N/A   Scattered Clouds
4:15 AM 35.8 °F 24.5 °F 26.8 °F 70% 29.76 in 10.0 mi WSW 21.9 mph - N/A   Clear
4:35 AM 35.1 °F 25.5 °F 26.1 °F 70% 29.79 in 10.0 mi West 15.0 mph - N/A   Clear
4:55 AM 34.9 °F 25.7 °F 25.0 °F 67% 29.81 in 10.0 mi West 13.8 mph - N/A   Clear
5:15 AM 34.3 °F 25.0 °F 24.6 °F 68% 29.81 in 10.0 mi West 13.8 mph - N/A   Clear
5:35 AM 33.8 °F 23.5 °F 24.3 °F 68% 29.81 in 10.0 mi WSW 16.1 mph 21.9 mph N/A   Clear
5:55 AM 34.3 °F 24.6 °F 22.1 °F 61% 29.83 in 10.0 mi West 15.0 mph - N/A   Clear
6:15 AM 33.1 °F 23.4 °F 22.8 °F 66% 29.83 in 10.0 mi WSW 13.8 mph - N/A   Clear
6:35 AM 33.6 °F 22.9 °F 21.6 °F 61% 29.83 in 10.0 mi West 17.3 mph - N/A   Clear
7:15 AM 32.5 °F 22.7 °F 21.6 °F 64% 29.85 in 10.0 mi WNW 13.8 mph - N/A   Clear
7:35 AM 32.7 °F 23.0 °F 21.7 °F 64% 29.86 in 10.0 mi West 13.8 mph - N/A   Clear
7:55 AM 32.7 °F 21.8 °F 22.1 °F 65% 29.86 in 10.0 mi West 17.3 mph - N/A   Clear
8:15 AM 34.0 °F 23.8 °F 21.7 °F 61% 29.87 in 10.0 mi West 16.1 mph - N/A   Clear
8:35 AM 34.2 °F 26.8 °F 22.5 °F 62% 29.89 in 10.0 mi WNW 9.2 mph - N/A   Clear
8:55 AM 35.2 °F 26.6 °F 22.8 °F 61% 29.90 in 10.0 mi WNW 12.7 mph 18.4 mph N/A   Clear
9:15 AM 36.5 °F 28.2 °F 22.8 °F 58% 29.90 in 10.0 mi West 12.7 mph - N/A   Clear
9:35 AM 37.4 °F 28.5 °F 22.8 °F 56% 29.91 in 10.0 mi West 15.0 mph 23.0 mph N/A   Clear
9:55 AM 38.3 °F 30.5 °F 24.1 °F 57% 29.92 in 10.0 mi WNW 12.7 mph - N/A   Clear
10:15 AM 40.1 °F 31.3 °F 25.2 °F 55% 29.93 in 10.0 mi WNW 17.3 mph 21.9 mph N/A   Clear
10:35 AM 42.3 °F 33.1 °F 25.5 °F 52% 29.93 in 10.0 mi WNW 21.9 mph - N/A   Clear
10:55 AM 43.0 °F 33.3 °F 23.5 °F 46% 29.94 in 10.0 mi WNW 25.3 mph 34.5 mph N/A   Clear
11:15 AM 44.2 °F 34.8 °F 23.7 °F 44% 29.94 in 10.0 mi WNW 26.5 mph 32.2 mph N/A   Clear
11:35 AM 45.5 °F 36.3 °F 22.1 °F 40% 29.95 in 10.0 mi NW 27.6 mph 35.7 mph N/A   Scattered Clouds
11:55 AM 45.5 °F 36.9 °F 18.7 °F 34% 29.96 in 10.0 mi NW 24.2 mph 29.9 mph N/A   Clear
12:15 PM 46.6 °F - 20.8 °F 36% 29.97 in 10.0 mi WNW 24.2 mph 32.2 mph N/A   Scattered Clouds
12:35 PM 46.2 °F 38.1 °F 19.6 °F 35% 29.97 in 10.0 mi NW 23.0 mph 29.9 mph N/A   Scattered Clouds
12:55 PM 47.3 °F - 18.5 °F 32% 29.98 in 10.0 mi NW 18.4 mph 29.9 mph N/A   Scattered Clouds
1:15 PM 46.4 °F 39.0 °F 19.0 °F 34% 29.98 in 10.0 mi NW 19.6 mph 29.9 mph N/A   Mostly Cloudy
1:35 PM 48.7 °F - 18.7 °F 30% 29.98 in 10.0 mi NW 21.9 mph 33.4 mph N/A   Scattered Clouds
1:55 PM 48.2 °F - 20.7 °F 34% 29.98 in 10.0 mi NNW 23.0 mph 29.9 mph N/A   Mostly Cloudy
2:15 PM 45.3 °F 38.4 °F 19.9 °F 36% 30.00 in 10.0 mi NW 16.1 mph 26.5 mph N/A   Mostly Cloudy
2:35 PM 46.6 °F - 21.0 °F 36% 30.00 in 10.0 mi NNW 17.3 mph 26.5 mph N/A   Mostly Cloudy
2:55 PM 48.4 °F - 22.1 °F 36% 30.00 in 10.0 mi NW 15.0 mph 25.3 mph N/A   Mostly Cloudy
3:15 PM 48.9 °F - 21.6 °F 34% 30.01 in 10.0 mi NW 17.3 mph 21.9 mph N/A   Scattered Clouds
3:35 PM 48.0 °F - 20.5 °F 34% 30.01 in 10.0 mi NW 16.1 mph 24.2 mph N/A   Scattered Clouds
3:55 PM 48.6 °F - 20.3 °F 33% 30.01 in 10.0 mi NW 11.5 mph 19.6 mph N/A   Scattered Clouds
4:15 PM 46.9 °F - 20.1 °F 35% 30.02 in 10.0 mi NNW 17.3 mph 24.2 mph N/A   Scattered Clouds
4:35 PM 46.2 °F 38.3 °F 25.7 °F 45% 30.03 in 10.0 mi North 21.9 mph 25.3 mph N/A   Scattered Clouds
4:55 PM 44.8 °F 37.7 °F 26.4 °F 49% 30.04 in 10.0 mi North 16.1 mph - N/A   Clear
5:15 PM 44.4 °F 38.6 °F 24.4 °F 45% 30.04 in 10.0 mi North 11.5 mph 23.0 mph N/A   Clear
5:35 PM 45.3 °F 40.1 °F 23.0 °F 41% 30.04 in 10.0 mi NNW 10.4 mph - N/A   Mostly Cloudy
5:55 PM 46.8 °F - 22.3 °F 38% 30.05 in 10.0 mi NW 8.1 mph - N/A   Scattered Clouds
6:15 PM 44.8 °F 39.9 °F 23.0 °F 42% 30.05 in 10.0 mi NNW 9.2 mph - N/A   Scattered Clouds
6:35 PM 43.7 °F 37.7 °F 28.2 °F 54% 30.07 in 10.0 mi North 11.5 mph - N/A   Overcast
6:55 PM 43.9 °F 38.8 °F 24.1 °F 46% 30.07 in 10.0 mi NW 9.2 mph 17.3 mph N/A   Mostly Cloudy
7:15 PM 43.5 °F 38.3 °F 24.8 °F 48% 30.08 in 10.0 mi NW 9.2 mph - N/A   Scattered Clouds
7:35 PM 43.3 °F 35.2 °F 25.2 °F 49% 30.08 in 10.0 mi North 18.4 mph - N/A   Clear
7:55 PM 39.9 °F 33.4 °F 27.9 °F 62% 30.09 in 10.0 mi North 10.4 mph - N/A   Clear
8:15 PM 37.2 °F 32.6 °F 29.3 °F 73% 30.09 in 10.0 mi NNE 5.8 mph - N/A   Clear
8:35 PM 34.2 °F - 28.2 °F 79% 30.09 in 10.0 mi Calm Calm - N/A   Clear
8:55 PM 33.6 °F - 29.3 °F 84% 30.10 in 10.0 mi Calm Calm - N/A   Clear
9:15 PM 32.7 °F - 27.9 °F 82% 30.10 in 10.0 mi Calm Calm - N/A   Clear
9:35 PM 32.9 °F - 28.2 °F 83% 30.10 in 10.0 mi Calm Calm - N/A   Clear
9:55 PM 31.1 °F 23.7 °F 27.5 °F 87% 30.12 in 10.0 mi SSW 8.1 mph - N/A   Clear
10:15 PM 30.9 °F 24.3 °F 27.5 °F 87% 30.12 in 10.0 mi SSW 6.9 mph - N/A   Clear
10:35 PM 31.6 °F 24.4 °F 27.9 °F 86% 30.13 in 10.0 mi SW 8.1 mph - N/A   Clear
11:00 PM 30.9 °F 26.2 °F 27.1 °F 86% 30.13 in 10.0 mi SW 4.6 mph - N/A   Clear
11:15 PM 32.0 °F 24.8 °F 27.5 °F 83% 30.13 in 10.0 mi SSW 8.1 mph - N/A   Clear
11:35 PM 31.8 °F 27.3 °F 26.6 °F 81% 30.13 in 10.0 mi SW 4.6 mph - N/A   Clear
11:55 PM 30.7 °F 24.1 °F 26.2 °F 83% 30.14 in 10.0 mi SW 6.9 mph - N/A   Clear